EW3994 Weather Reports


Display with metric or nautical units.
time (UTC)temp
F
wind
direction
speed
MPH
gust
MPH
rain 1hr
in
rain 24hr
in
rain mn
in
humidity
%
barometer
mb
20260905182127 53 269 3.0 7.0 0.00 0.06 0.01 64 1020.4
20260905181226 53 270 3.0 6.0 0.00 0.06 0.01 64 1020.3
20260905175427 54 271 3.0 6.0 0.00 0.06 0.01 64 1020.3
20260905174527 54 269 4.0 9.0 0.00 0.06 0.01 64 1020.4
20260905173627 53 277 4.0 8.0 0.00 0.06 0.01 64 1020.4
20260905171826 53 271 4.0 8.0 0.00 0.06 0.01 64 1020.5
20260905170026 53 268 4.0 10.0 0.00 0.06 0.01 64 1020.8
20260905165126 53 265 7.0 12.0 0.00 0.06 0.01 64 1020.8
20260905164227 53 268 4.0 9.0 0.00 0.06 0.01 64 1020.8
20260905163326 53 273 2.0 6.0 0.00 0.06 0.01 64 1020.8
20260905162426 53 280 2.0 5.0 0.01 0.06 0.01 64 1020.7
20260905161526 53 280 2.0 4.0 0.01 0.06 0.01 64 1020.8
20260905160626 53 271 3.0 5.0 0.01 0.06 0.01 64 1020.9
20260905155726 54 263 2.0 4.0 0.01 0.06 0.01 64 1020.9
20260905154826 54 257 3.0 7.0 0.01 0.06 0.01 64 1020.9
20260905153926 54 255 6.0 14.0 0.01 0.06 0.01 64 1021.0
20260905153026 54 256 8.0 16.0 0.00 0.06 0.00 64 1020.9
20260905152126 54 268 5.0 12.0 0.00 0.06 0.00 64 1020.8
20260905151226 54 270 5.0 9.0 0.00 0.06 0.00 64 1020.7
20260905150326 54 269 7.0 12.0 0.00 0.06 0.00 64 1020.7
20260905145426 54 270 4.0 11.0 0.00 0.06 0.00 64 1020.6
20260905144526 54 268 4.0 8.0 0.00 0.06 0.00 64 1020.6
20260905143627 54 269 5.0 9.0 0.00 0.06 0.00 64 1020.5
20260905142726 55 268 5.0 10.0 0.00 0.06 0.06 64 1020.6
20260905140926 55 267 7.0 11.0 0.00 0.06 0.06 64 1020.7
20260905140026 55 268 5.0 9.0 0.00 0.06 0.06 64 1020.6
20260905134226 55 280 6.0 12.0 0.00 0.06 0.06 64 1020.5
20260905133326 55 280 5.0 10.0 0.00 0.06 0.06 64 1020.5
20260905132426 55 280 5.0 9.0 0.00 0.06 0.06 64 1020.4
20260905130626 55 275 6.0 10.0 0.00 0.06 0.06 63 1020.4
20260905125726 55 265 7.0 11.0 0.00 0.06 0.06 63 1020.3
20260905124826 55 273 7.0 11.0 0.00 0.06 0.06 63 1020.2
20260905123926 55 275 6.0 11.0 0.00 0.06 0.06 63 1020.3
20260905123026 55 266 7.0 14.0 0.00 0.06 0.06 63 1020.0
20260905122126 55 267 5.0 12.0 0.00 0.06 0.06 63 1019.9
20260905121226 55 263 6.0 11.0 0.00 0.06 0.06 63 1019.8
20260905120326 55 263 7.0 15.0 0.00 0.06 0.06 63 1019.7
20260905115426 55 269 6.0 11.0 0.00 0.06 0.06 63 1019.6
20260905113626 55 260 8.0 14.0 0.00 0.06 0.06 63 1019.5
20260905112725 55 263 7.0 16.0 0.00 0.06 0.06 63 1019.5
20260905110926 55 268 4.0 9.0 0.00 0.06 0.06 63 1019.3
20260905110027 55 268 4.0 8.0 0.00 0.06 0.06 63 1019.3
20260905105126 54 268 3.0 8.0 0.00 0.06 0.06 63 1019.1
20260905104226 54 270 4.0 7.0 0.00 0.06 0.06 62 1019.1
20260905102426 55 267 9.0 16.0 0.00 0.06 0.06 61 1018.8
20260905101526 55 259 10.0 21.0 0.00 0.06 0.06 61 1018.7
20260905095727 55 253 7.0 14.0 0.01 0.06 0.06 60 1018.3
20260905093925 56 250 10.0 17.0 0.01 0.06 0.06 59 1018.1
20260905093026 56 256 8.0 16.0 0.01 0.06 0.06 59 1017.8
20260905092125 56 256 9.0 17.0 0.01 0.06 0.06 59 1017.8
20260905091225 56 257 10.0 18.0 0.01 0.06 0.06 58 1017.6
20260905090326 56 258 10.0 17.0 0.00 0.05 0.05 57 1017.5
20260905085426 57 250 8.0 16.0 0.00 0.05 0.05 55 1017.5
20260905084525 58 259 11.0 20.0 0.00 0.05 0.05 52 1017.3
20260905083625 58 263 12.0 19.0 0.00 0.05 0.05 51 1016.9
20260905082725 58 256 12.0 21.0 0.00 0.05 0.05 52 1016.8
20260905081825 58 255 12.0 22.0 0.00 0.05 0.05 51 1016.5
20260905080925 58 263 11.0 22.0 0.00 0.05 0.05 51 1016.2
20260905080025 58 262 12.0 22.0 0.00 0.05 0.05 52 1016.0
20260905075125 59 268 13.0 24.0 0.00 0.05 0.05 51 1015.7
20260905074226 59 276 13.0 22.0 0.00 0.05 0.05 51 1015.6
20260905073325 59 265 15.0 25.0 0.00 0.05 0.05 51 1015.4
20260905071525 59 269 15.0 26.0 0.00 0.05 0.05 50 1015.2
20260905070625 59 264 14.0 25.0 0.00 0.05 0.05 51 1015.2
20260905065725 58 269 14.0 25.0 0.00 0.05 0.05 53 1015.1
20260905064825 60 265 15.0 27.0 0.00 0.05 0.05 49 1015.1
20260905063925 61 268 15.0 30.0 0.00 0.05 0.05 46 1015.0
20260905063025 61 262 15.0 24.0 0.00 0.05 0.05 51 1015.0
20260905062125 61 262 13.0 23.0 0.00 0.05 0.05 49 1014.9
20260905061225 61 264 16.0 30.0 0.00 0.05 0.05 50 1014.8
20260905060325 60 265 13.0 25.0 0.00 0.05 0.05 51 1014.7
20260905054527 59 267 18.0 35.0 0.00 0.05 0.05 52 1014.5
20260905052725 61 275 18.0 30.0 0.00 0.05 0.05 46 1014.2
20260905051825 62 274 16.0 29.0 0.00 0.05 0.05 46 1014.2
20260905050925 62 274 16.0 27.0 0.00 0.05 0.05 46 1014.2
20260905050025 62 273 15.0 28.0 0.00 0.05 0.05 49 1014.2
20260905045125 60 273 15.0 28.0 0.00 0.05 0.05 50 1014.2
20260905043325 61 273 18.0 34.0 0.00 0.05 0.05 48 1013.7
20260905042425 62 279 17.0 30.0 0.00 0.05 0.05 46 1013.5
20260905041525 62 281 17.0 30.0 0.00 0.05 0.05 46 1013.5
20260905040625 62 273 18.0 31.0 0.00 0.05 0.05 46 1013.4
20260905033925 60 273 17.0 29.0 0.00 0.05 0.05 49 1013.7
20260905033026 60 276 15.0 32.0 0.00 0.05 0.05 49 1013.8
20260905032125 60 272 16.0 29.0 0.00 0.05 0.05 50 1013.9
20260905030325 58 267 16.0 29.0 0.02 0.05 0.05 53 1013.7
20260905025425 59 267 12.0 26.0 0.02 0.05 0.05 54 1013.6
20260905023626 60 270 8.0 17.0 0.02 0.05 0.05 62 1013.8
20260905022725 57 270 13.0 22.0 0.02 0.06 0.05 63 1013.8
20260905021824 58 280 15.0 26.0 0.02 0.09 0.05 56 1014.0
20260905020925 59 283 15.0 27.0 0.00 0.10 0.03 53 1013.4
20260905020025 61 282 15.0 29.0 0.00 0.12 0.03 46 1013.3
20260905015125 65 277 14.0 26.0 0.00 0.13 0.03 45 1013.4
20260905014225 63 274 14.0 23.0 0.00 0.14 0.03 47 1013.4
20260905013324 63 272 11.0 17.0 0.00 0.16 0.03 47 1013.4
20260905012424 63 263 12.0 26.0 0.00 0.17 0.03 51 1013.3
20260905011524 60 264 16.0 29.0 0.00 0.17 0.03 53 1013.2
20260905010624 60 269 16.0 29.0 0.00 0.17 0.03 52 1012.8
20260905005724 62 272 11.0 25.0 0.00 0.17 0.03 56 1012.8
20260905004824 59 273 11.0 21.0 0.00 0.17 0.03 58 1012.5
20260905003924 57 270 11.0 22.0 0.00 0.17 0.03 64 1012.4
20260905003024 56 277 14.0 25.0 0.00 0.17 0.03 63 1012.4
20260905002124 56 272 13.0 24.0 0.01 0.17 0.03 62 1012.4
20260905001224 57 270 10.0 18.0 0.03 0.17 0.03 63 1012.2
20260904235424 56 281 11.0 17.0 0.03 0.17 0.03 64 1012.1
20260904234525 55 285 12.0 25.0 0.03 0.17 0.03 64 1011.9
20260904233624 56 281 10.0 17.0 0.03 0.17 0.03 64 1011.9
20260904231824 58 300 10.0 19.0 0.00 0.13 0.00 60 1011.2
20260904230924 58 307 10.0 17.0 0.00 0.13 0.00 58 1011.1
20260904230024 58 306 9.0 16.0 0.00 0.13 0.00 58 1011.1
20260904225124 58 300 9.0 20.0 0.00 0.13 0.00 58 1011.1
20260904224224 58 293 10.0 20.0 0.00 0.13 0.00 57 1011.2
20260904223324 58 295 10.0 17.0 0.00 0.13 0.00 58 1011.1
20260904222424 58 291 9.0 19.0 0.00 0.13 0.00 59 1011.1
20260904221524 57 296 8.0 15.0 0.00 0.13 0.00 59 1011.0
20260904220624 56 292 9.0 20.0 0.00 0.13 0.00 59 1010.8
20260904215724 57 291 9.0 17.0 0.00 0.13 0.00 59 1010.7
20260904214824 57 291 9.0 17.0 0.00 0.13 0.00 60 1010.7
20260904213025 56 296 8.0 16.0 0.00 0.13 0.00 59 1010.6
20260904212124 56 290 10.0 17.0 0.00 0.13 0.00 59 1010.5
20260904211225 56 286 9.0 15.0 0.00 0.13 0.00 58 1010.5
20260904210324 57 288 9.0 15.0 0.00 0.13 0.00 58 1010.5
20260904204524 57 283 10.0 19.0 0.00 0.13 0.00 58 1010.2
20260904203624 57 279 12.0 26.0 0.00 0.13 0.00 59 1010.1
20260904202724 57 279 11.0 19.0 0.00 0.13 0.00 59 1010.0
20260904201824 58 278 13.0 23.0 0.00 0.13 0.00 60 1009.9
20260904200925 58 278 12.0 26.0 0.00 0.13 0.00 60 1009.7
20260904200024 58 277 12.0 23.0 0.00 0.13 0.00 61 1009.7
20260904195124 58 283 12.0 22.0 0.00 0.13 0.00 61 1009.5
20260904194224 58 288 11.0 20.0 0.00 0.13 0.00 61 1009.5
20260904193326 58 297 11.0 20.0 0.00 0.13 0.00 61 1009.5
20260904192424 59 305 10.0 19.0 0.00 0.13 0.00 62 1009.2
20260904191524 59 309 6.0 13.0 0.00 0.13 0.00 62 1009.0
20260904190624 59 325 6.0 11.0 0.00 0.13 0.00 62 1009.0
20260904185724 59 330 5.0 12.0 0.00 0.13 0.00 61 1008.8
20260904183024 60 322 6.0 11.0 0.00 0.13 0.00 61 1008.6